Printer-friendly version

IAU Minor Planet Center

Minor Planet Center

MPEC 2002-A71: 2002 AN11

The following Minor Planet Electronic Circular may be linked-to from your own Web pages, but must not otherwise be redistributed electronically.


Read MPEC 2002-A70 Read MPEC 2002-A72


M.P.E.C. 2002-A71                                Issued 2002 Jan. 12, 22:35 UT

     The Minor Planet Electronic Circulars contain information on unusual
         minor planets and routine data on comets.  They are published
   on behalf of Commission 20 of the International Astronomical Union by the
          Minor Planet Center, Smithsonian Astrophysical Observatory,
                          Cambridge, MA 02138, U.S.A.

             Prepared using the Tamkin Foundation Computer Network

                              MPC@CFA.HARVARD.EDU
          URL http://cfa-www.harvard.edu/iau/mpc.html  ISSN 1523-6714

                                   2002 AN11

Observations:
     K02A11N* C2002 01 08.08141 00 58 00.48 +22 51 55.2          19.9        704
     K02A11N  C2002 01 08.09668 00 58 04.46 +22 51 47.9          19.7        704
     K02A11N  C2002 01 08.11195 00 58 08.52 +22 51 42.7          19.4        704
     K02A11N  C2002 01 08.12722 00 58 12.50 +22 51 36.8          20.0        704
     K02A11N  C2002 01 08.14250 00 58 16.59 +22 51 30.8          19.9        704
     K02A11N  C2002 01 11.19738 01 11 47.41 +22 32 04.8          19.0 R      649
     K02A11N  C2002 01 11.19993 01 11 47.95 +22 32 02.4          19.3 R      649
     K02A11N  C2002 01 11.20825 01 11 50.15 +22 31 58.9          19.2 R      649
     K02A11N  C2002 01 11.73712 01 14 09.87 +22 28 35.1          18.3 R      046
     K02A11N  C2002 01 11.74038 01 14 10.41 +22 28 32.4          18.4 R      046
     K02A11N  C2002 01 11.74199 01 14 11.10 +22 28 31.5          18.6 R      046
     K02A11N  C2002 01 12.06264 01 15 35.31 +22 26 31.8          19.4 R      711
     K02A11N  C2002 01 12.06782 01 15 36.64 +22 26 30.3          19.4 R      711
     K02A11N  C2002 01 12.07298 01 15 38.06 +22 26 26.9          19.5 R      711

Observer details:
046 Klet.  Observers J. Ticha, M. Tichy.  0.57-m f/5.2 reflector + CCD.
649 Powell Observatory, Louisburg.  Observers R. Fredrick, R. Trentman.
    0.75-m Newtonian + CCD.
704 Lincoln Laboratory ETS, New Mexico.  Observers M. Blythe, F. Shelly,
    M. Bezpalko, R. Huber, L. Manguso, S. Adams, J. Piscitelli.  Measurers
    J. Stuart, R. Sayer, J. B. Evans, H. Viggh.  1.0-m f/2.15 reflector + CCD.
711 McDonald Observatory.  Observers P. J. Shelus, J. G. Ries.  0.76-m
    reflector + CCD.

Orbital elements:
2002 AN11
Epoch 2002 Jan. 6.0 TT = JDT 2452280.5                  MPC
M  22.40702              (2000.0)            P               Q
n   0.48474441     Peri.  112.78762     +0.78407256     -0.53384787
a   1.6049475      Node   280.86498     +0.38168906     +0.81696785
e   0.2640881      Incl.   18.80696     +0.48943201     +0.21810542
P   2.03           H   17.9           G   0.15
From 13 observations 2002 Jan. 8-12.

Ephemeris:
2002 AN11                a,e,i = 1.60, 0.26, 19                  q = 1.1811
Date    TT    R. A. (2000) Decl.     Delta      r     Elong.  Phase     V
2002 01 06    00 48.69   +23 04.7    0.675    1.238    94.7    52.4    19.4
2002 01 16    01 32.62   +22 00.6    0.729    1.263    93.8    51.0    19.6
2002 01 26    02 14.02   +20 53.3    0.795    1.291    92.4    49.6    19.8
2002 02 05    02 52.57   +19 47.1    0.872    1.323    90.6    48.2    20.0
2002 02 15    03 28.40   +18 44.6    0.958    1.356    88.3    46.7    20.2
2002 02 25    04 01.84   +17 46.0    1.053    1.391    85.8    45.2    20.5
2002 03 07    04 33.21   +16 50.1    1.154    1.427    83.0    43.6    20.7
2002 03 17    05 02.89   +15 55.3    1.260    1.464    80.1    42.0    20.9
2002 03 27    05 31.17   +14 59.8    1.369    1.501    77.0    40.4    21.1
2002 04 06    05 58.27   +14 01.8    1.480    1.538    73.8    38.7    21.2
2002 04 16    06 24.38   +12 59.8    1.593    1.575    70.6    36.9    21.4
2002 04 26    06 49.66   +11 52.8    1.706    1.611    67.3    35.2    21.5
2002 05 06    07 14.17   +10 40.0    1.818    1.647    63.9    33.4    21.7
2002 05 16    07 38.04   +09 20.9    1.929    1.681    60.5    31.6    21.8
2002 05 26    08 01.31   +07 55.3    2.038    1.714    57.1    29.8    21.9
2002 06 05    08 24.03   +06 23.3    2.144    1.746    53.7    27.9    22.0

Brian G. Marsden             (C) Copyright 2002 MPC           M.P.E.C. 2002-A71

Read MPEC 2002-A70 Read MPEC 2002-A72


Our Web policy. Index to the CBAT/MPC/ICQ pages.


Valid HTML 4.01!